Weather Roundup
Issued by NWS Corpus Christi, TX

Home | Current Version | Previous Version | Text Only | Print | Product List | Glossary On
Versions: 1 2 3 4 5 6 7 8 9 10 11 12 13 14 15 16 17 18 19 20 21 22 23 24 25 26 27 28 29 30 31 32 33 34 35 36 37 38 39 40 41 42 43 44 45 46 47 48 49 50
883
ASUS44 KCRP 202010
HRRCRP

SOUTH TEXAS REGIONAL WEATHER ROUNDUP
NATIONAL WEATHER SERVICE CORPUS CHRISTI TX
200 PM CST MON FEB 20 2017


TXZ229>244-202100-
...CORPUS CHRISTI AREA OBSERVATIONS...

CITY           SKY/WX    TMP DP  RH WIND       PRES   REMARKS
CORPUS CHRISTI CLOUDY    66  63  90 E5        30.00S
NAS CORPUS CHR CLOUDY    65  65 100 E8        29.99S
ROCKPORT       LGT RAIN  65  62  90 E9        29.98F
KINGSVILLE NAS CLOUDY    69  65  86 N3        29.98F
ALICE          CLOUDY    69  61  75 VRB5      29.99S
ORANGE GROVE   CLOUDY    70  62  76 CALM      30.00F
FALFURRIAS     CLOUDY    70  60  71 NW6       29.99F
$$

...VICTORIA AREA OBSERVATIONS...

CITY           SKY/WX    TMP DP  RH WIND       PRES   REMARKS
VICTORIA       CLOUDY    65  60  84 S3        29.97F
BEEVILLE       CLOUDY    65  65 100 CALM      29.97F
PLEASANTON     MOSUNNY   71  54  54 W7        29.99F
SAN ANTONIO    PTSUNNY   70  51  51 VRB3      29.97F
$$

...LAREDO AREA OBSERVATIONS...

CITY           SKY/WX    TMP DP  RH WIND       PRES   REMARKS
LAREDO         SUNNY     80  42  25 N9        29.98F
COTULLA        SUNNY     80  40  23 MISG      29.97F
DEL RIO        SUNNY     74  37  26 NW20G29   29.99F
MCALLEN        MOSUNNY   79  58  48 N10       29.99F
HEBBRONVILLE   SUNNY     74  43  32 N13G20    30.00F
$$

...OTHER TEXAS OBSERVATIONS...

CITY           SKY/WX    TMP DP  RH WIND       PRES   REMARKS
BROWNSVILLE    CLOUDY    67  64  90 N3        29.97F
HOUSTON        RAIN      61  59  93 NE12      29.96F FOG
COL. STATION   CLOUDY    62  60  93 NW9       29.97S
AUSTIN         CLOUDY    67  58  72 VRB6      29.95F
WACO           CLOUDY    62  58  86 MISG      29.94F
FORT WORTH     CLOUDY    64  58  80 S15       29.89F
WICHITA FALLS  MOSUNNY   66  46  48 S9        29.87F
LUBBOCK        MOSUNNY   69  23  17 N26G36    29.95S
EL PASO        MOSUNNY   63  29  27 W7        30.17F
$$

...MARINE OBSERVATIONS...

STATION/POSITION TIME  SKY/WX   TEMP    WIND        PRES    VSBY  WAVE   SWELL
                                AIR SEA DIR/SP/G                  HT/PER HT/PER
                 (UTC)          (F)     (DEG/KT/KT) (MB)    (MI)  (FT/S) (FT/S)
PORT ARANSAS     2000            65 67   90/  7/  7 1015.1F
BUOY 90 E PORT A 1950            65 70   40/ 14/ 17 1014.2F         6/ 8   5/ 8
BUOY 45 SE BAFFI 1950            68      10/  6/  8 1014.4R         5/ 7   5/ 7
BUOY 200 E PT IS 1850            75 75  200/ 12/ 14 1013.6          6/ 7   5/ 7
BUOY 15 E GALVES 1850            63 64  330/ 17/ 21 1014.9          4/ 7   3/ 7
$$




USA.gov is the U.S. government's official web portal to all federal, state and local government web resources and services.